20050415,151501,87134,32.678802,-117.230154,NaN,NaN,NaN,NaN
20050415,152501,87735,32.651138,-117.226873,NaN,NaN,NaN,NaN
20050415,153503,88336,32.627461,-117.241659,NaN,NaN,NaN,NaN
20050415,154504,88938,32.627682,-117.271290,14.980,-0.008,0.786,1.782
20050415,155505,89538,32.651116,-117.287464,15.238,15.598,1.876,5.444
20050415,160506,90139,32.676543,-117.301081,14.604,32.636,0.492,0.911
20050415,161506,90740,32.701818,-117.314385,14.793,32.898,0.417,0.758
20050415,162507,91340,32.727344,-117.327374,15.235,33.157,0.410,0.748
20050415,163507,91940,32.753409,-117.338739,15.293,33.270,0.424,0.786
20050415,164507,92540,32.781450,-117.335957,15.238,33.305,0.422,0.792
20050415,165522,93155,32.810348,-117.329443,15.142,33.348,0.438,0.829
20050415,170552,93785,32.839948,-117.322940,14.977,33.365,0.497,0.952
20050415,171607,94400,32.869054,-117.317050,14.669,33.466,0.451,0.814
20050415,172607,95000,32.897365,-117.311218,14.481,33.259,0.420,0.706
20050415,173607,95600,32.925908,-117.304491,14.651,33.351,0.460,0.878
20050415,174607,96201,32.951796,-117.298123,14.821,33.331,0.996,2.248
20050415,175608,96801,32.958001,-117.299113,14.952,33.368,0.944,2.088
20050415,180608,97401,32.958121,-117.301555,15.110,33.338,1.097,2.602
20050415,181608,98001,32.958207,-117.303301,15.303,33.379,1.057,2.263
20050415,182608,98601,32.957786,-117.305502,15.176,33.450,0.920,2.073
20050415,183608,99202,32.957268,-117.307794,15.451,33.358,0.811,1.792
20050415,184609,99803,32.956510,-117.310129,15.313,33.443,0.494,0.984
20050415,185610,100403,32.955432,-117.313942,15.209,33.411,0.397,0.776
20050415,190610,101003,32.954057,-117.317559,15.133,33.401,0.360,0.702
20050415,191610,101603,32.949874,-117.322722,15.186,33.397,0.334,0.653
20050415,192610,102203,32.946576,-117.325348,15.377,33.341,0.324,0.639
20050415,193610,102803,32.943224,-117.328035,15.418,33.397,0.319,0.637
20050415,194610,103403,32.939561,-117.330335,15.383,33.379,0.314,0.627
20050415,195610,104004,32.943403,-117.311580,15.208,33.400,0.399,0.823
20050415,200611,104604,32.951886,-117.284434,15.276,33.375,0.842,2.016
20050415,201611,105204,32.951554,-117.280303,15.739,33.304,0.854,1.807
20050415,202611,105804,32.950109,-117.281770,15.817,33.398,0.883,1.680
20050415,203611,106404,32.948179,-117.283700,15.509,33.495,0.998,1.874
20050415,204626,107019,32.945245,-117.289410,15.500,33.378,1.081,2.333
20050415,205641,107634,32.946653,-117.296562,15.463,33.455,1.078,2.342
20050415,210641,108234,32.966567,-117.310269,15.333,33.422,0.672,1.397
20050415,211641,108835,32.991955,-117.324503,15.221,33.415,0.373,0.731
20050415,212642,109435,33.017447,-117.338292,15.413,33.365,0.541,1.089
20050415,213657,110050,33.043696,-117.352002,15.485,33.359,0.778,1.761
20050415,214712,110665,33.070011,-117.365978,15.826,33.282,2.028,6.218
20050415,215712,111265,33.095172,-117.381242,15.915,33.392,2.037,5.505
20050415,220712,111865,33.119956,-117.397100,15.694,33.476,1.156,2.596
20050415,221712,112465,33.144527,-117.412648,15.293,33.447,0.889,2.072
20050415,222713,113066,33.168543,-117.428874,15.120,33.415,0.801,1.727
20050415,223728,113681,33.194497,-117.442305,14.922,33.403,0.819,1.649
20050415,224743,114296,33.221529,-117.454037,15.179,33.372,1.281,3.166
20050415,225743,114896,33.243408,-117.463325,15.224,33.397,3.012,11.059
20050415,230743,115496,33.245804,-117.466323,15.462,33.370,2.715,8.258
20050415,231758,116111,33.245600,-117.468611,15.643,33.384,2.710,6.997
20050415,232813,116726,33.245341,-117.473058,15.682,33.439,2.835,7.693
20050415,233828,117341,33.241808,-117.476985,16.021,33.331,3.998,14.560
20050415,234843,117956,33.219336,-117.470707,15.864,33.507,1.932,5.250
20050415,235843,118557,33.189004,-117.461994,15.535,33.497,1.168,2.388
20050416,000844,119157,33.158497,-117.453714,14.888,33.543,0.665,1.183
20050416,001844,119758,33.127775,-117.445504,15.018,33.309,0.588,1.084
20050416,002845,120358,33.097196,-117.437785,15.158,33.398,0.494,0.822
20050416,003845,120958,33.066741,-117.430712,15.181,33.408,0.557,0.962
20050416,004845,121558,33.036317,-117.423835,15.139,33.313,0.570,0.994
20050416,005845,122158,33.005838,-117.416341,15.705,33.367,0.559,0.938
20050416,010845,122758,32.985353,-117.428795,15.295,33.484,0.604,0.998
20050416,011846,123359,32.962978,-117.448229,15.303,33.340,0.670,1.058
20050416,012846,123959,32.933515,-117.443010,15.760,33.240,0.696,1.014
20050416,013846,124559,32.917650,-117.415186,15.780,33.379,0.609,0.872
20050416,014901,125174,32.911320,-117.394797,15.519,33.380,0.660,0.904
20050416,015916,125790,32.909064,-117.396037,15.778,33.221,0.639,0.822
20050416,020932,126405,32.907352,-117.397710,15.840,33.307,0.617,0.761
20050416,021947,127020,32.905708,-117.398540,15.899,33.325,0.592,0.716
20050416,022947,127620,32.903942,-117.399366,16.034,33.321,0.624,0.758
20050416,023947,128220,32.902185,-117.399705,16.032,33.328,0.622,0.754
20050416,024947,128820,32.900316,-117.400828,16.339,33.341,0.583,0.698
20050416,025947,129421,32.898401,-117.401646,16.471,33.336,0.564,0.672
20050416,030948,130021,32.896552,-117.402265,16.376,33.401,0.554,0.659
20050416,032003,130636,32.894600,-117.402589,16.311,33.331,0.541,0.640
20050416,033018,131251,32.892593,-117.403242,16.347,33.382,0.558,0.664
20050416,034018,131851,32.890531,-117.404481,16.200,33.393,0.564,0.673
20050416,035018,132451,32.888543,-117.407683,15.993,33.395,0.584,0.700
20050416,040018,133052,32.886234,-117.411652,16.311,33.268,0.545,0.647
20050416,041019,133652,32.883798,-117.417859,16.613,33.347,0.548,0.650
20050416,042020,134253,32.881610,-117.421299,16.605,33.390,0.534,0.631
20050416,043020,134853,32.879476,-117.425516,16.083,33.509,0.603,0.726
20050416,044020,135453,32.871791,-117.445953,15.766,33.362,0.670,0.825
20050416,045020,136053,32.860302,-117.478564,15.768,33.446,0.575,0.688
20050416,050020,136653,32.851226,-117.511435,15.481,33.367,0.516,0.606
20050416,051020,137253,32.845991,-117.533289,15.896,33.198,0.452,0.522
20050416,052020,137853,32.844669,-117.537043,16.100,33.307,0.430,0.494
20050416,053020,138454,32.843581,-117.539689,16.004,33.327,0.439,0.505
20050416,054021,139054,32.842805,-117.541525,15.835,33.401,0.462,0.536
20050416,055021,139654,32.842030,-117.543484,15.778,33.307,0.457,0.528
20050416,060021,140254,32.841203,-117.546155,15.795,33.307,0.456,0.527
20050416,061021,140854,32.840373,-117.548510,15.763,33.330,0.459,0.531
20050416,062022,141455,32.839615,-117.550982,15.791,33.314,0.444,0.512
20050416,063022,142055,32.838777,-117.555642,15.736,33.343,0.456,0.528
20050416,064022,142655,32.837902,-117.561437,15.640,33.337,0.448,0.517
20050416,065022,143255,32.837070,-117.568199,15.704,33.292,0.418,0.479
20050416,070037,143870,32.836720,-117.572165,15.850,33.321,0.413,0.473
20050416,071052,144485,32.835574,-117.578309,15.637,33.365,0.454,0.525
20050416,072052,145086,32.823454,-117.602913,15.710,33.244,0.440,0.508
20050416,073053,145686,32.807762,-117.631581,16.112,33.312,0.461,0.533
20050416,074053,146286,32.791887,-117.659758,16.017,33.333,0.441,0.509
20050416,075053,146886,32.775973,-117.687816,15.738,33.385,0.384,0.437
20050416,080053,147486,32.760194,-117.716152,15.871,33.178,0.322,0.362
20050416,081053,148086,32.744916,-117.745086,15.873,33.261,0.273,0.304
20050416,082108,148701,32.729673,-117.774967,15.898,33.207,0.277,0.309
20050416,083123,149317,32.714749,-117.804371,16.139,33.155,0.277,0.309
20050416,084123,149917,32.700010,-117.833142,16.297,33.267,0.269,0.299
20050416,085124,150518,32.683882,-117.859480,16.358,33.162,0.270,0.301
20050416,090125,151118,32.680648,-117.870392,16.208,33.278,0.258,0.287
20050416,091125,151718,32.680744,-117.871850,16.154,33.206,0.260,0.289
20050416,092125,152318,32.680121,-117.873079,16.137,33.215,0.254,0.282
20050416,093125,152918,32.679133,-117.873807,16.035,33.214,0.253,0.282
20050416,094140,153533,32.677884,-117.874425,16.064,33.204,0.258,0.288
20050416,095155,154149,32.676364,-117.874550,16.237,33.192,0.258,0.288
20050416,100156,154749,32.674930,-117.874622,16.335,33.200,0.261,0.291
20050416,101211,155364,32.673557,-117.874451,16.255,33.246,0.260,0.289
20050416,102226,155979,32.670934,-117.874851,16.295,33.204,0.259,0.289
20050416,103241,156594,32.666409,-117.876450,16.421,33.203,0.257,0.286
20050416,104311,157224,32.662003,-117.877377,16.276,33.264,0.236,0.263
20050416,105326,157839,32.658764,-117.877709,16.352,33.197,0.249,0.277
20050416,110326,158440,32.655901,-117.878937,16.263,33.263,0.232,0.259
20050416,111326,159040,32.649097,-117.894181,16.016,33.272,0.223,0.249
20050416,112327,159640,32.638030,-117.921186,15.955,33.223,0.259,0.288
20050416,113327,160240,32.625849,-117.950307,15.922,33.206,0.265,0.295
20050416,114327,160840,32.613588,-117.979224,16.156,33.174,0.280,0.312
20050416,115327,161440,32.601218,-118.007818,16.191,33.264,0.293,0.327
20050416,120327,162040,32.588527,-118.036276,16.015,33.280,0.306,0.342
20050416,121327,162640,32.575585,-118.064957,16.024,33.192,0.314,0.351
20050416,122327,163240,32.562313,-118.093798,16.184,33.220,0.315,0.353
20050416,123327,163841,32.548865,-118.122944,16.072,33.280,0.299,0.335
20050416,124328,164441,32.536279,-118.152503,15.866,33.266,0.289,0.322
20050416,125328,165041,32.524276,-118.182599,15.863,33.207,0.277,0.309
20050416,130343,165656,32.514446,-118.209348,15.815,33.230,0.253,0.282
20050416,131358,166271,32.513105,-118.213953,15.829,33.191,0.259,0.289
20050416,132358,166871,32.513282,-118.214295,15.826,33.209,0.263,0.295
20050416,133358,167471,32.513398,-118.214700,15.832,33.204,0.266,0.302
20050416,134358,168072,32.513373,-118.214800,15.832,33.213,0.268,0.312
20050416,135359,168673,32.513395,-118.214718,15.833,33.212,0.267,0.326
20050416,140400,169273,32.513756,-118.214900,15.826,33.218,0.269,0.343
20050416,141400,169873,32.513838,-118.215609,15.809,33.215,0.270,0.358
20050416,142415,170488,32.513295,-118.216331,15.799,33.210,0.267,0.365
20050416,143430,171103,32.511055,-118.218602,15.851,33.201,0.263,0.377
20050416,144430,171703,32.508121,-118.221651,15.850,33.221,0.244,0.366
20050416,145431,172304,32.504077,-118.224939,15.823,33.206,0.217,0.340
20050416,150446,172919,32.500957,-118.227098,15.972,33.177,0.211,0.331
20050416,151501,173534,32.497541,-118.232390,16.039,33.217,0.203,0.257
20050416,152501,174134,32.487028,-118.254085,15.999,33.214,0.215,0.273
20050416,153501,174734,32.473196,-118.282984,15.859,33.234,0.229,0.293
20050416,154516,175349,32.459464,-118.312210,15.729,33.242,0.223,0.320
20050416,155531,175964,32.445928,-118.341418,15.666,33.215,0.300,0.461
20050416,160532,176565,32.432693,-118.370142,15.643,33.249,0.304,0.487
20050416,161532,177165,32.418916,-118.398830,15.394,33.323,0.298,0.490
20050416,162547,177780,32.404779,-118.427647,15.242,33.241,0.282,0.474
20050416,163617,178410,32.390345,-118.457491,15.085,33.287,0.273,0.464
20050416,164647,179040,32.375993,-118.488033,14.934,33.228,0.257,0.443
20050416,165702,179655,32.362201,-118.517964,14.895,33.180,0.264,0.468
20050416,170702,180256,32.350823,-118.543407,15.014,33.178,0.220,0.393
20050416,171703,180856,32.346588,-118.555036,15.075,33.176,0.198,0.354
20050416,172703,181456,32.346014,-118.555859,15.130,33.191,0.200,0.354
20050416,173703,182056,32.345780,-118.555848,15.162,33.200,0.199,0.362
20050416,174703,182656,32.345467,-118.555388,15.192,33.206,0.207,0.382
20050416,175703,183256,32.345101,-118.555165,15.233,33.192,0.198,0.364
20050416,180703,183856,32.344816,-118.554832,15.260,33.201,0.195,0.368
20050416,181704,184458,32.344628,-118.554568,15.329,33.200,0.193,0.365
20050416,182705,185058,32.344560,-118.554598,15.342,33.193,0.187,0.348
20050416,183705,185658,32.343891,-118.555702,15.449,33.205,0.185,0.350
20050416,184705,186258,32.342730,-118.558273,15.327,33.241,0.186,0.348
20050416,185720,186873,32.340487,-118.563112,15.290,33.218,0.188,0.351
20050416,190735,187488,32.338318,-118.567084,15.239,33.191,0.193,0.358
20050416,191735,188088,32.336504,-118.570343,15.251,33.176,0.187,0.356
20050416,192735,188689,32.332791,-118.577856,15.158,33.183,0.193,0.371
20050416,193736,189289,32.318591,-118.604253,15.029,33.148,0.188,0.357
20050416,194736,189889,32.303432,-118.632557,15.088,33.127,0.190,0.364
20050416,195736,190489,32.288059,-118.660916,15.069,33.203,0.206,0.395
20050416,200736,191089,32.272652,-118.689463,14.929,33.213,0.259,0.495
20050416,201751,191704,32.256941,-118.718592,14.935,33.263,0.349,0.673
20050416,202806,192319,32.241985,-118.748072,14.638,33.188,0.379,0.733
20050416,203807,192920,32.228169,-118.777024,14.814,33.180,0.357,0.691
20050416,204807,193520,32.214596,-118.805929,14.883,33.161,0.353,0.681
20050416,205822,194135,32.202342,-118.836552,14.843,33.197,0.325,0.624
20050416,210837,194750,32.192690,-118.867679,14.795,33.121,0.263,0.500
20050416,211837,195350,32.182168,-118.889378,15.052,32.950,0.269,0.512
20050416,212837,195950,32.180246,-118.891632,15.619,32.862,0.252,0.477
20050416,213837,196550,32.179844,-118.891987,15.700,32.978,0.251,0.475
20050416,214837,197151,32.179591,-118.892430,15.757,33.063,0.257,0.485
20050416,215838,197751,32.179590,-118.892742,15.777,33.075,0.255,0.481
20050416,220838,198351,32.179535,-118.892950,15.773,33.105,0.252,0.472
20050416,221838,198951,32.179598,-118.893507,15.700,33.117,0.254,0.476
20050416,222838,199551,32.179692,-118.893250,15.750,33.076,0.263,0.491
20050416,223838,200151,32.179383,-118.893686,15.898,33.088,0.261,0.489
20050416,224838,200752,32.177123,-118.895730,15.717,33.165,0.267,0.499
20050416,225839,201352,32.174731,-118.897892,15.484,33.160,0.279,0.517
20050416,230840,201953,32.172504,-118.900877,15.182,33.191,0.302,0.539
20050416,231840,202553,32.169879,-118.905183,15.363,33.035,0.307,0.574
20050416,232840,203153,32.168057,-118.908262,15.075,33.197,0.328,0.553
20050416,233840,203753,32.164639,-118.913833,15.107,33.056,0.365,0.585
20050416,234840,204353,32.153539,-118.933708,15.200,33.110,0.404,0.604
20050416,235840,204953,32.138288,-118.961644,15.254,33.090,0.524,0.870
20050417,000840,205553,32.123168,-118.989524,15.015,33.137,0.550,0.868
20050417,001841,206154,32.108650,-119.018085,14.967,33.082,0.566,0.836
20050417,002841,206754,32.094179,-119.046520,15.012,33.090,0.577,0.850
20050417,003841,207354,32.079899,-119.074752,15.001,33.088,0.508,0.707
20050417,004841,207954,32.066086,-119.103108,14.885,33.136,0.433,0.568
20050417,005841,208554,32.054302,-119.132440,14.831,33.092,0.479,0.607
20050417,010841,209154,32.043902,-119.162530,14.803,33.101,0.492,0.622
20050417,011841,209754,32.033474,-119.192590,14.803,33.102,0.490,0.609
20050417,012841,210355,32.021304,-119.218584,14.737,33.103,0.564,0.709
20050417,013842,210955,32.014065,-119.232314,14.809,33.047,0.629,0.791
20050417,014842,211555,32.014000,-119.234032,14.835,33.078,0.678,0.855
20050417,015857,212170,32.013249,-119.234619,14.750,33.104,0.677,0.846
20050417,020912,212785,32.012694,-119.234715,14.726,33.111,0.680,0.845
20050417,021912,213385,32.012445,-119.235354,14.721,33.111,0.682,0.845
20050417,022912,213985,32.012141,-119.236238,14.713,33.118,0.649,0.793
20050417,023912,214586,32.011649,-119.236678,14.700,33.121,0.646,0.789
20050417,024913,215186,32.011510,-119.236723,14.681,33.122,0.639,0.778
20050417,025913,215786,32.010898,-119.238822,14.661,33.121,0.624,0.757
20050417,030913,216386,32.009852,-119.242585,14.665,33.122,0.571,0.682
20050417,031928,217001,32.008856,-119.248174,14.617,33.133,0.557,0.663
20050417,032943,217616,32.008191,-119.253545,14.587,33.127,0.536,0.634
20050417,033958,218231,32.007235,-119.257825,14.569,33.129,0.521,0.613
20050417,035013,218847,32.004512,-119.267391,14.568,33.121,0.558,0.668
20050417,040015,219448,31.990149,-119.294333,14.587,33.118,0.544,0.645
20050417,041015,220048,31.974228,-119.323286,14.624,33.118,0.579,0.693
20050417,042015,220648,31.958396,-119.351907,14.725,33.085,0.458,0.532
20050417,043015,221248,31.943010,-119.380190,15.122,33.065,0.235,0.261
20050417,044015,221848,31.928087,-119.408692,15.186,33.164,0.239,0.267
20050417,045030,222463,31.913329,-119.438501,15.105,33.175,0.275,0.306
20050417,050045,223078,31.898520,-119.467501,15.075,33.118,0.277,0.309
20050417,051045,223679,31.884128,-119.495549,15.380,33.115,0.193,0.217
20050417,052046,224279,31.869536,-119.524285,15.488,33.176,0.182,0.205
20050417,053046,224879,31.855329,-119.553631,15.526,33.197,0.183,0.206
20050417,054046,225479,31.846752,-119.572329,15.563,33.188,0.179,0.201
20050417,055046,226079,31.846966,-119.575864,15.569,33.178,0.177,0.200
20050417,060046,226679,31.847876,-119.578909,15.571,33.201,0.175,0.197
20050417,061047,227280,31.848644,-119.581369,15.564,33.204,0.174,0.196
20050417,062047,227880,31.849500,-119.584098,15.542,33.207,0.176,0.199
20050417,063047,228481,31.850284,-119.587364,15.498,33.205,0.181,0.204
20050417,064047,229080,31.851147,-119.590541,15.470,33.193,0.180,0.203
20050417,065102,229695,31.852381,-119.593797,15.463,33.185,0.366,0.507
20050417,070132,230325,31.853724,-119.597192,15.460,33.178,0.183,0.206
20050417,071147,230940,31.855564,-119.600381,15.456,33.183,0.180,0.203
20050417,072147,231540,31.858215,-119.606041,15.439,33.176,0.228,0.260
20050417,073147,232141,31.859872,-119.610001,15.416,33.174,0.185,0.208
20050417,074148,232741,31.861253,-119.613778,15.409,33.178,0.186,0.209
20050417,075148,233341,31.860461,-119.621665,15.391,33.184,0.188,0.211
20050417,080203,233956,31.855182,-119.646041,15.307,33.201,0.194,0.218
20050417,081218,234571,31.840333,-119.672911,15.182,33.172,0.223,0.249
20050417,082233,235186,31.823290,-119.699883,15.209,33.196,0.220,0.245
20050417,083248,235801,31.805719,-119.726733,14.991,33.163,0.289,0.325
20050417,084249,236402,31.788761,-119.752430,15.330,33.111,0.194,0.218
20050417,085250,237003,31.771944,-119.778457,15.425,33.165,0.186,0.209
20050417,090250,237603,31.755074,-119.804836,15.443,33.179,0.186,0.209
20050417,091250,238203,31.738212,-119.831456,15.441,33.179,0.193,0.216
20050417,092250,238803,31.721362,-119.858097,15.463,33.175,0.185,0.208
20050417,093250,239403,31.704377,-119.884769,15.474,33.179,0.185,0.208
20050417,094250,240003,31.687273,-119.911400,15.465,33.182,0.193,0.216
20050417,095250,240604,31.670320,-119.938211,15.489,33.174,0.196,0.219
20050417,100251,241204,31.654420,-119.965606,15.489,33.178,0.199,0.223
20050417,101251,241804,31.639471,-119.993569,15.498,33.177,0.193,0.217
20050417,102251,242404,31.624593,-120.022200,15.492,33.182,0.183,0.206
20050417,103251,243004,31.610706,-120.051711,15.472,33.179,0.182,0.205
20050417,104251,243604,31.596995,-120.081080,15.469,33.174,0.183,0.206
20050417,105251,244204,31.582307,-120.109869,15.474,33.175,0.184,0.207
20050417,110251,244804,31.566886,-120.138450,15.469,33.176,0.184,0.207
20050417,111251,245404,31.551928,-120.167709,15.466,33.176,0.190,0.213
20050417,112251,246005,31.538034,-120.197714,15.470,33.175,0.193,0.217
20050417,113307,246620,31.524361,-120.227948,15.467,33.176,0.194,0.217
20050417,114322,247235,31.515162,-120.245795,15.494,33.176,0.192,0.215
20050417,115337,247850,31.514855,-120.249777,15.493,33.176,0.208,0.233
20050417,120352,248465,31.516642,-120.251060,15.473,33.171,0.190,0.213
20050417,121407,249080,31.518283,-120.253585,15.462,33.166,0.193,0.217
20050417,122422,249695,31.518920,-120.255797,15.459,33.162,0.201,0.225
20050417,123422,250296,31.519438,-120.257355,15.456,33.156,0.196,0.219
20050417,124423,250896,31.519898,-120.259230,15.456,33.169,0.194,0.218
20050417,125423,251496,31.520583,-120.261442,15.458,33.172,0.196,0.219
20050417,130423,252096,31.521549,-120.263062,15.462,33.172,0.202,0.227
20050417,131423,252696,31.522414,-120.265584,15.458,33.175,0.196,0.220
20050417,132423,253296,31.523991,-120.267700,15.453,33.176,0.199,0.222
20050417,133423,253896,31.526831,-120.272689,15.466,33.131,0.311,0.363
20050417,134423,254496,31.528519,-120.277797,15.466,32.984,0.219,0.245
20050417,135423,255097,31.529433,-120.282532,15.442,33.006,0.217,0.244
20050417,140425,255698,31.529530,-120.288734,15.415,33.082,0.219,0.247
20050417,141425,256298,31.518542,-120.307619,15.369,33.146,0.209,0.237
20050417,142425,256898,31.502011,-120.335135,15.333,33.163,0.211,0.240
20050417,143425,257498,31.484985,-120.362677,15.301,33.182,0.212,0.243
20050417,144425,258098,31.467827,-120.389835,15.271,33.164,0.252,0.290
20050417,145425,258699,31.450793,-120.417157,15.295,33.176,0.220,0.256
20050417,150426,259299,31.433546,-120.444549,15.226,33.182,0.258,0.304
20050417,151426,259899,31.416424,-120.472047,15.270,33.158,0.248,0.294
20050417,152426,260499,31.399091,-120.500077,15.212,33.214,0.248,0.295
20050417,153441,261114,31.381277,-120.528490,14.931,33.188,0.291,0.348
20050417,154456,261730,31.363952,-120.557185,14.883,33.162,0.310,0.380
20050417,155456,262330,31.347541,-120.585563,14.681,33.179,0.384,0.478
20050417,160512,262945,31.331005,-120.615356,14.460,33.144,0.451,0.581
20050417,161527,263560,31.314277,-120.645132,14.441,33.097,0.442,0.569
20050417,162542,264175,31.297701,-120.674984,14.468,33.083,0.438,0.570
20050417,163557,264790,31.281417,-120.705547,14.550,33.068,0.432,0.569
20050417,164557,265390,31.266021,-120.735440,14.570,33.083,0.392,0.513
20050417,165557,265990,31.250998,-120.764664,15.098,32.965,0.230,0.304
20050417,170557,266591,31.236361,-120.794206,15.320,33.135,0.193,0.276
20050417,171558,267191,31.221987,-120.824103,15.380,33.162,0.179,0.247
20050417,172558,267791,31.207915,-120.854093,15.361,33.183,0.183,0.240
20050417,173613,268406,31.193477,-120.884808,15.269,33.193,0.174,0.250
20050417,174628,269021,31.181203,-120.911811,15.090,33.197,0.168,0.274
20050417,175313,269426,31.178612,-120.921205,14.968,33.177,0.166,0.277
20050417,183511,271945,31.193101,-120.940816,14.816,33.078,0.264,0.415
20050417,184514,272547,31.199069,-120.945308,14.755,33.065,0.336,0.602
20050417,185515,273149,31.203280,-120.951663,14.777,33.077,0.369,0.700
20050417,190516,273750,31.204357,-120.956390,14.741,33.082,0.354,0.665
20050417,191517,274351,31.205106,-120.960287,14.721,33.091,0.344,0.583
20050417,192519,274953,31.205646,-120.963390,14.712,33.089,0.339,0.623
20050417,193521,275555,31.206373,-120.965936,14.715,33.091,0.341,0.607
20050417,194523,276156,31.206222,-120.968327,14.723,33.091,0.336,0.553
20050417,195524,276757,31.206082,-120.970891,14.727,33.087,0.329,0.558
20050417,200525,277358,31.205321,-120.973698,14.733,33.093,0.327,0.573
20050417,201526,277960,31.204938,-120.977131,14.735,33.087,0.323,0.544
20050417,202527,278561,31.205296,-120.980822,14.737,33.090,0.319,0.514
20050417,203529,279163,31.205734,-120.985139,14.742,33.090,0.319,0.557
20050417,204531,279764,31.207414,-120.992046,14.735,33.092,0.319,0.576
20050417,205532,280366,31.207755,-120.996849,14.738,33.089,0.317,0.508
20050417,210535,280968,31.209163,-121.001756,14.741,33.088,0.316,0.571
20050417,211536,281570,31.204874,-121.011863,14.735,33.085,0.310,0.536
20050417,212537,282171,31.190370,-121.033667,14.721,33.091,0.305,0.477
20050417,213539,282772,31.172041,-121.061008,14.698,33.090,0.303,0.469
20050417,214541,283374,31.153256,-121.087789,14.694,33.083,0.298,0.462
20050417,215542,283976,31.134190,-121.114532,14.722,33.090,0.292,0.456
20050417,220543,284577,31.115682,-121.141782,14.731,33.101,0.288,0.439
20050417,221545,285179,31.097793,-121.169579,14.718,33.101,0.282,0.416
20050417,222546,285780,31.080410,-121.197342,14.701,33.102,0.279,0.407
20050417,223547,286381,31.063404,-121.225179,14.676,33.095,0.277,0.398
20050417,224549,286982,31.046669,-121.252653,14.763,33.049,0.276,0.383
20050417,225551,287584,31.029783,-121.279996,15.125,33.042,0.272,0.384
20050417,230552,288185,31.012404,-121.307437,15.232,33.100,0.271,0.434
20050417,231554,288787,30.994976,-121.334699,15.408,33.158,0.271,0.407
20050417,232556,289389,30.977249,-121.362021,15.308,33.203,0.270,0.390
20050417,233557,289990,30.959239,-121.389274,15.176,33.163,0.268,0.434